^^
Datos históricos de la estación: Murcia-Puente Tocinos
Diario Informe para Abril 22, 2017 Unidades:  Métrico    Inglés   Ambas
Diario Semanal Mensual Anual Configurable
  Máximo: Mínimo: Media:
Temperatura: 18.3 °C 11.6 °C 14.9 °C
Punto de rocio: 9.5 °C 6.2 °C 7.9 °C
Humedad: 80% 48% 64%
Velocidad viento: 18.0km/h 2.3km/h 8.4km/h
Racha viento: 56.5km/h - -
Viento- - SE
Presión: 1024.3 hPa 1017.5 hPa -
Precipitación: 0.0 mm    
Historical Graphs
 
 
Tabla de datos para Abril 22, 2017
Hora Temperatura Punto de rocio Presión Viento Velocidad viento Racha viento Humedad Intensidad lluvia(por hora) Nubes
00:01 12.4 °C 6.7 °C 1023.6 hPa SW 5.0 km/h 56.5 km/h 68% 0.0 mm
00:06 12.4 °C 6.4 °C 1023.6 hPa WSW 5.0 km/h 56.5 km/h 67% 0.0 mm
00:11 12.4 °C 6.4 °C 1023.6 hPa West 5.0 km/h 56.5 km/h 67% 0.0 mm
00:16 12.4 °C 6.4 °C 1023.6 hPa SW 4.7 km/h 56.5 km/h 67% 0.0 mm
00:21 12.3 °C 6.3 °C 1023.6 hPa WSW 4.7 km/h 56.5 km/h 67% 0.0 mm
00:26 12.3 °C 6.3 °C 1023.6 hPa WSW 3.9 km/h 56.5 km/h 67% 0.0 mm
00:31 12.3 °C 6.3 °C 1023.6 hPa WSW 3.9 km/h 56.5 km/h 67% 0.0 mm
00:36 12.3 °C 6.3 °C 1023.6 hPa SW 3.9 km/h 56.5 km/h 67% 0.0 mm
00:41 12.3 °C 6.3 °C 1023.6 hPa SSW 3.9 km/h 56.5 km/h 67% 0.0 mm
00:46 12.3 °C 6.3 °C 1023.6 hPa SW 3.9 km/h 56.5 km/h 67% 0.0 mm
00:51 12.3 °C 6.3 °C 1023.6 hPa SW 3.9 km/h 56.5 km/h 67% 0.0 mm
00:56 12.2 °C 6.2 °C 1023.6 hPa SW 2.9 km/h 56.5 km/h 67% 0.0 mm
01:01 12.3 °C 6.3 °C 1023.6 hPa SW 2.9 km/h 56.5 km/h 67% 0.0 mm
01:06 12.3 °C 6.3 °C 1023.6 hPa SW 2.9 km/h 56.5 km/h 67% 0.0 mm
01:11 12.3 °C 6.8 °C 1023.6 hPa SSE 2.9 km/h 56.5 km/h 69% 0.0 mm
01:12 12.3 °C 6.8 °C 1023.6 hPa SSE 2.9 km/h 56.5 km/h 69% 0.0 mm
01:17 12.2 °C 6.7 °C 1023.6 hPa SSE 3.9 km/h 56.5 km/h 69% 0.0 mm
01:22 11.9 °C 6.6 °C 1023.6 hPa SE 3.9 km/h 56.5 km/h 70% 0.0 mm
01:27 11.8 °C 6.5 °C 1023.6 hPa SSE 5.8 km/h 56.5 km/h 70% 0.0 mm
01:32 11.7 °C 6.6 °C 1023.6 hPa South 5.8 km/h 56.5 km/h 71% 0.0 mm
01:37 11.7 °C 6.6 °C 1023.6 hPa SSE 6.4 km/h 56.5 km/h 71% 0.0 mm
01:42 11.6 °C 6.5 °C 1023.6 hPa SSE 6.4 km/h 56.5 km/h 71% 0.0 mm
01:47 11.7 °C 6.6 °C 1023.6 hPa SW 6.9 km/h 56.5 km/h 71% 0.0 mm
01:52 11.8 °C 6.5 °C 1023.9 hPa South 6.9 km/h 56.5 km/h 70% 0.0 mm
01:57 11.9 °C 6.6 °C 1023.9 hPa South 6.9 km/h 56.5 km/h 70% 0.0 mm
02:02 12.0 °C 6.5 °C 1023.9 hPa South 6.9 km/h 56.5 km/h 69% 0.0 mm
02:07 12.1 °C 6.6 °C 1023.9 hPa SSW 6.4 km/h 56.5 km/h 69% 0.0 mm
02:12 12.1 °C 6.4 °C 1023.9 hPa South 6.4 km/h 56.5 km/h 68% 0.0 mm
02:17 12.2 °C 6.4 °C 1023.9 hPa South 5.0 km/h 56.5 km/h 68% 0.0 mm
02:22 12.3 °C 6.6 °C 1024.3 hPa SSW 5.0 km/h 56.5 km/h 68% 0.0 mm
02:27 12.3 °C 6.3 °C 1024.3 hPa South 5.8 km/h 56.5 km/h 67% 0.0 mm
02:32 12.4 °C 6.4 °C 1024.3 hPa SSW 5.8 km/h 56.5 km/h 67% 0.0 mm
02:37 12.6 °C 6.4 °C 1024.3 hPa South 6.4 km/h 56.5 km/h 66% 0.0 mm
02:42 12.6 °C 6.4 °C 1024.3 hPa WSW 6.4 km/h 56.5 km/h 66% 0.0 mm
02:47 12.7 °C 6.5 °C 1024.3 hPa SSW 5.0 km/h 56.5 km/h 66% 0.0 mm
02:52 12.7 °C 6.5 °C 1024.3 hPa SSW 5.0 km/h 56.5 km/h 66% 0.0 mm
02:57 12.8 °C 6.6 °C 1024.3 hPa SSE 5.0 km/h 56.5 km/h 66% 0.0 mm
03:02 12.9 °C 6.5 °C 1024.3 hPa SW 5.0 km/h 56.5 km/h 65% 0.0 mm
03:07 12.9 °C 6.2 °C 1024.3 hPa SSW 6.4 km/h 56.5 km/h 64% 0.0 mm
03:12 12.9 °C 6.2 °C 1024.3 hPa SSW 6.4 km/h 56.5 km/h 64% 0.0 mm BKN
03:17 13.1 °C 6.4 °C 1024.3 hPa South 6.9 km/h 56.5 km/h 64% 0.0 mm FEW
03:19 13.1 °C 6.4 °C 1024.3 hPa SSW 6.9 km/h 56.5 km/h 64% 0.0 mm SCT
03:24 13.2 °C 6.6 °C 1024.3 hPa SW 6.9 km/h 56.5 km/h 64% 0.0 mm FEW
03:29 13.4 °C 6.5 °C 1024.3 hPa SW 6.4 km/h 56.5 km/h 63% 0.0 mm SCT
03:34 13.5 °C 6.3 °C 1024.3 hPa WSW 6.4 km/h 56.5 km/h 62% 0.0 mm FEW
03:39 13.7 °C 6.6 °C 1024.3 hPa WSW 4.7 km/h 56.5 km/h 62% 0.0 mm SCT
03:40 13.7 °C 6.6 °C 1024.3 hPa WSW 4.7 km/h 56.5 km/h 62% 0.0 mm SCT
03:45 13.9 °C 6.7 °C 1024.3 hPa NW 4.7 km/h 56.5 km/h 62% 0.0 mm FEW
03:50 14.3 °C 6.9 °C 1024.3 hPa ESE 3.2 km/h 56.5 km/h 61% 0.0 mm FEW
03:55 14.7 °C 7.0 °C 1024.3 hPa WNW 3.2 km/h 56.5 km/h 60% 0.0 mm FEW
04:00 14.7 °C 6.8 °C 1024.3 hPa NE 3.9 km/h 56.5 km/h 59% 0.0 mm FEW
04:05 14.9 °C 6.9 °C 1024.3 hPa WNW 3.9 km/h 56.5 km/h 59% 0.0 mm FEW
04:10 15.1 °C 6.9 °C 1024.3 hPa NW 3.9 km/h 56.5 km/h 58% 0.0 mm FEW
04:15 15.3 °C 6.8 °C 1024.3 hPa NNW 3.9 km/h 56.5 km/h 57% 0.0 mm FEW
04:20 15.2 °C 7.0 °C 1023.9 hPa North 4.7 km/h 56.5 km/h 58% 0.0 mm FEW
04:25 15.2 °C 7.2 °C 1023.9 hPa NE 4.7 km/h 56.5 km/h 59% 0.0 mm FEW
04:30 15.2 °C 7.0 °C 1023.9 hPa NE 5.0 km/h 56.5 km/h 58% 0.0 mm FEW
04:35 15.3 °C 7.1 °C 1023.9 hPa NE 5.0 km/h 56.5 km/h 58% 0.0 mm FEW
04:40 15.4 °C 6.9 °C 1023.9 hPa NE 8.7 km/h 56.5 km/h 57% 0.0 mm FEW
04:45 15.4 °C 6.9 °C 1023.9 hPa NE 8.7 km/h 56.5 km/h 57% 0.0 mm FEW
04:50 15.4 °C 6.9 °C 1023.9 hPa NE 15.6 km/h 56.5 km/h 57% 0.0 mm FEW
04:55 15.6 °C 6.8 °C 1023.9 hPa NE 15.6 km/h 56.5 km/h 56% 0.0 mm FEW
05:00 15.8 °C 6.8 °C 1023.9 hPa NNE 18.0 km/h 56.5 km/h 55% 0.0 mm FEW
05:05 15.9 °C 6.9 °C 1023.9 hPa NNE 18.0 km/h 56.5 km/h 55% 0.0 mm FEW
05:10 15.9 °C 6.9 °C 1023.9 hPa ENE 14.8 km/h 56.5 km/h 55% 0.0 mm FEW
05:15 15.9 °C 6.9 °C 1023.9 hPa NNE 14.8 km/h 56.5 km/h 55% 0.0 mm
05:20 16.0 °C 6.9 °C 1023.9 hPa NNE 15.6 km/h 56.5 km/h 55% 0.0 mm
05:25 16.0 °C 6.9 °C 1023.9 hPa NNE 15.6 km/h 56.5 km/h 55% 0.0 mm
05:30 16.4 °C 7.3 °C 1023.9 hPa West 16.4 km/h 56.5 km/h 55% 0.0 mm
05:35 16.4 °C 7.1 °C 1023.6 hPa NNE 16.4 km/h 56.5 km/h 54% 0.0 mm
05:41 16.3 °C 6.9 °C 1023.6 hPa NNE 15.6 km/h 37.0 km/h 54% 0.0 mm CLR
05:45 16.3 °C 6.9 °C 1023.6 hPa NNE 15.6 km/h 37.0 km/h 54% 0.0 mm
05:50 16.5 °C 7.4 °C 1023.6 hPa NE 18.0 km/h 37.0 km/h 55% 0.0 mm
05:55 16.5 °C 7.2 °C 1023.6 hPa NE 18.0 km/h 37.0 km/h 54% 0.0 mm
06:06 16.5 °C 7.2 °C 1023.6 hPa North 17.2 km/h 37.0 km/h 54% 0.0 mm
06:11 16.4 °C 7.1 °C 1023.6 hPa NNE 16.1 km/h 37.0 km/h 54% 0.0 mm
06:16 16.6 °C 7.2 °C 1023.6 hPa North 16.1 km/h 37.0 km/h 54% 0.0 mm
06:21 16.8 °C 7.2 °C 1023.2 hPa North 14.0 km/h 37.0 km/h 53% 0.0 mm
06:26 16.9 °C 7.0 °C 1023.2 hPa NNE 14.0 km/h 37.0 km/h 52% 0.0 mm
06:31 17.2 °C 7.3 °C 1023.2 hPa East 17.2 km/h 37.0 km/h 52% 0.0 mm
06:36 17.6 °C 7.1 °C 1023.2 hPa ENE 17.2 km/h 37.0 km/h 50% 0.0 mm
06:41 17.8 °C 6.6 °C 1023.2 hPa NE 12.2 km/h 37.0 km/h 48% 0.0 mm
06:46 17.5 °C 6.7 °C 1023.2 hPa NE 12.2 km/h 37.0 km/h 49% 0.0 mm
06:51 17.1 °C 6.6 °C 1023.2 hPa North 14.0 km/h 37.0 km/h 50% 0.0 mm
06:56 16.9 °C 6.4 °C 1023.2 hPa NE 14.0 km/h 37.0 km/h 50% 0.0 mm
07:01 17.0 °C 6.5 °C 1023.2 hPa NE 15.6 km/h 37.0 km/h 50% 0.0 mm
07:06 17.1 °C 6.6 °C 1022.9 hPa ENE 14.0 km/h 37.0 km/h 50% 0.0 mm
07:11 17.1 °C 6.9 °C 1022.9 hPa East 14.0 km/h 37.0 km/h 51% 0.0 mm
07:16 17.1 °C 6.6 °C 1022.9 hPa ENE 14.0 km/h 37.0 km/h 50% 0.0 mm
07:21 17.1 °C 6.6 °C 1022.9 hPa NNE 14.0 km/h 37.0 km/h 50% 0.0 mm
07:22 17.1 °C 6.9 °C 1022.9 hPa East 14.0 km/h 37.0 km/h 51% 0.0 mm
07:26 17.2 °C 7.3 °C 1022.9 hPa NNE 14.0 km/h 37.0 km/h 52% 0.0 mm
07:31 17.4 °C 7.2 °C 1022.9 hPa ENE 14.0 km/h 37.0 km/h 51% 0.0 mm
07:36 17.8 °C 7.2 °C 1022.6 hPa ENE 12.2 km/h 37.0 km/h 50% 0.0 mm
07:41 18.0 °C 7.1 °C 1022.6 hPa ESE 12.2 km/h 37.0 km/h 49% 0.0 mm
07:47 18.2 °C 7.3 °C 1022.6 hPa NNE 11.1 km/h 37.0 km/h 49% 0.0 mm
07:51 18.0 °C 7.1 °C 1022.6 hPa ENE 11.1 km/h 37.0 km/h 49% 0.0 mm
07:56 17.9 °C 7.0 °C 1022.6 hPa ENE 13.7 km/h 37.0 km/h 49% 0.0 mm
08:02 18.1 °C 7.2 °C 1022.6 hPa NNW 13.7 km/h 37.0 km/h 49% 0.0 mm
08:07 17.8 °C 7.5 °C 1022.2 hPa NNE 15.6 km/h 37.0 km/h 51% 0.0 mm
08:12 17.6 °C 7.3 °C 1022.2 hPa NE 15.6 km/h 37.0 km/h 51% 0.0 mm
08:17 17.6 °C 7.6 °C 1022.2 hPa NNW 13.7 km/h 37.0 km/h 52% 0.0 mm FEW
08:22 17.6 °C 7.1 °C 1021.9 hPa ENE 13.7 km/h 37.0 km/h 50% 0.0 mm
08:27 17.4 °C 6.9 °C 1021.9 hPa NNE 14.8 km/h 37.0 km/h 50% 0.0 mm
08:32 17.6 °C 7.6 °C 1021.9 hPa East 14.8 km/h 37.0 km/h 52% 0.0 mm
08:37 17.7 °C 7.2 °C 1021.9 hPa NNE 10.3 km/h 37.0 km/h 50% 0.0 mm
08:42 17.7 °C 7.4 °C 1021.9 hPa NNW 10.3 km/h 37.0 km/h 51% 0.0 mm
08:47 17.8 °C 7.5 °C 1021.9 hPa NE 11.9 km/h 37.0 km/h 51% 0.0 mm CLR
08:52 17.8 °C 7.8 °C 1021.9 hPa ENE 11.9 km/h 37.0 km/h 52% 0.0 mm CLR
08:57 17.7 °C 7.7 °C 1021.9 hPa NNE 13.7 km/h 37.0 km/h 52% 0.0 mm CLR
09:02 17.7 °C 7.7 °C 1021.9 hPa NE 13.7 km/h 37.0 km/h 52% 0.0 mm CLR
09:07 18.0 °C 7.7 °C 1021.6 hPa NE 12.2 km/h 37.0 km/h 51% 0.0 mm CLR
09:12 17.9 °C 7.6 °C 1021.6 hPa North 12.2 km/h 37.0 km/h 51% 0.0 mm CLR
09:14 17.9 °C 7.3 °C 1021.6 hPa NNE 12.2 km/h 37.0 km/h 50% 0.0 mm CLR
09:18 17.8 °C 7.5 °C 1021.6 hPa NE 13.7 km/h 37.0 km/h 51% 0.0 mm CLR
09:23 17.7 °C 7.7 °C 1021.6 hPa NE 13.7 km/h 37.0 km/h 52% 0.0 mm CLR
09:28 17.7 °C 7.7 °C 1021.6 hPa NNE 12.2 km/h 37.0 km/h 52% 0.0 mm CLR
09:34 17.6 °C 8.2 °C 1021.6 hPa NE 12.2 km/h 37.0 km/h 54% 0.0 mm CLR
09:38 17.7 °C 7.4 °C 1021.2 hPa NE 12.2 km/h 37.0 km/h 51% 0.0 mm CLR
09:44 17.6 °C 8.2 °C 1021.2 hPa North 12.2 km/h 37.0 km/h 54% 0.0 mm CLR
09:49 17.8 °C 7.5 °C 1021.2 hPa NE 13.7 km/h 37.0 km/h 51% 0.0 mm CLR
09:53 17.6 °C 7.6 °C 1021.2 hPa East 13.7 km/h 37.0 km/h 52% 0.0 mm CLR
09:59 17.6 °C 8.2 °C 1021.2 hPa NE 17.2 km/h 37.0 km/h 54% 0.0 mm CLR
10:04 17.7 °C 8.3 °C 1021.2 hPa ENE 17.2 km/h 37.0 km/h 54% 0.0 mm CLR
10:09 17.7 °C 8.0 °C 1020.9 hPa North 13.7 km/h 37.0 km/h 53% 0.0 mm CLR
10:14 17.6 °C 7.9 °C 1020.9 hPa NW 13.7 km/h 37.0 km/h 53% 0.0 mm CLR
10:19 17.6 °C 7.3 °C 1020.9 hPa NNE 11.9 km/h 37.0 km/h 51% 0.0 mm CLR
10:24 17.7 °C 7.4 °C 1020.5 hPa NE 11.9 km/h 37.0 km/h 51% 0.0 mm CLR
10:29 17.9 °C 7.6 °C 1020.5 hPa East 14.0 km/h 37.0 km/h 51% 0.0 mm CLR
10:34 17.7 °C 7.2 °C 1020.5 hPa NE 14.0 km/h 37.0 km/h 50% 0.0 mm CLR
10:39 17.4 °C 7.2 °C 1020.5 hPa NE 13.7 km/h 37.0 km/h 51% 0.0 mm CLR
10:44 17.4 °C 7.4 °C 1020.5 hPa NNE 13.7 km/h 37.0 km/h 52% 0.0 mm CLR
10:49 17.8 °C 7.5 °C 1020.5 hPa North 10.3 km/h 37.0 km/h 51% 0.0 mm CLR
10:54 17.7 °C 7.2 °C 1020.2 hPa East 10.3 km/h 37.0 km/h 50% 0.0 mm CLR
10:59 17.7 °C 6.8 °C 1020.2 hPa ENE 12.2 km/h 37.0 km/h 49% 0.0 mm CLR
11:04 17.7 °C 7.2 °C 1020.2 hPa East 12.2 km/h 37.0 km/h 50% 0.0 mm CLR
11:09 17.9 °C 7.0 °C 1019.9 hPa ENE 9.5 km/h 37.0 km/h 49% 0.0 mm CLR
11:14 17.9 °C 7.3 °C 1019.9 hPa NE 9.5 km/h 37.0 km/h 50% 0.0 mm CLR
11:19 17.8 °C 7.5 °C 1019.9 hPa ENE 12.2 km/h 37.0 km/h 51% 0.0 mm CLR
11:24 17.7 °C 7.4 °C 1019.9 hPa NE 12.2 km/h 37.0 km/h 51% 0.0 mm CLR
11:29 17.7 °C 7.7 °C 1019.9 hPa NE 13.0 km/h 37.0 km/h 52% 0.0 mm CLR
11:34 17.9 °C 7.6 °C 1019.9 hPa NNE 13.0 km/h 37.0 km/h 51% 0.0 mm CLR
11:39 18.1 °C 7.5 °C 1019.9 hPa NNE 10.3 km/h 37.0 km/h 50% 0.0 mm CLR
11:44 18.1 °C 8.1 °C 1019.9 hPa ENE 10.3 km/h 37.0 km/h 52% 0.0 mm CLR
11:49 18.1 °C 7.8 °C 1019.9 hPa ENE 10.3 km/h 37.0 km/h 51% 0.0 mm CLR
11:54 18.2 °C 7.9 °C 1019.5 hPa NE 10.3 km/h 37.0 km/h 51% 0.0 mm CLR
11:59 18.2 °C 7.9 °C 1019.5 hPa NE 10.0 km/h 37.0 km/h 51% 0.0 mm CLR
12:04 18.2 °C 7.9 °C 1019.5 hPa NNE 10.0 km/h 37.0 km/h 51% 0.0 mm CLR
12:09 18.1 °C 7.5 °C 1019.5 hPa ENE 8.7 km/h 37.0 km/h 50% 0.0 mm CLR
12:14 18.1 °C 7.2 °C 1019.5 hPa NE 8.7 km/h 37.0 km/h 49% 0.0 mm CLR
12:19 18.2 °C 7.6 °C 1019.5 hPa NE 11.9 km/h 37.0 km/h 50% 0.0 mm CLR
12:24 18.1 °C 7.5 °C 1019.5 hPa North 11.9 km/h 37.0 km/h 50% 0.0 mm CLR
12:29 18.1 °C 7.8 °C 1019.5 hPa North 13.0 km/h 37.0 km/h 51% 0.0 mm CLR
12:34 18.3 °C 8.0 °C 1019.5 hPa NNE 13.0 km/h 37.0 km/h 51% 0.0 mm CLR
12:39 18.1 °C 7.5 °C 1019.2 hPa NE 10.3 km/h 37.0 km/h 50% 0.0 mm CLR
12:44 17.9 °C 7.9 °C 1019.2 hPa North 10.3 km/h 37.0 km/h 52% 0.0 mm CLR
12:49 17.9 °C 8.2 °C 1019.2 hPa ENE 16.1 km/h 37.0 km/h 53% 0.0 mm CLR
12:54 17.7 °C 8.0 °C 1018.8 hPa NE 16.1 km/h 37.0 km/h 53% 0.0 mm CLR
12:59 17.5 °C 8.1 °C 1018.8 hPa NE 15.6 km/h 37.0 km/h 54% 0.0 mm CLR
13:04 17.4 °C 8.0 °C 1018.8 hPa NE 15.6 km/h 37.0 km/h 54% 0.0 mm CLR
13:09 17.3 °C 8.2 °C 1018.8 hPa NNE 15.6 km/h 37.0 km/h 55% 0.0 mm CLR
13:15 17.4 °C 8.5 °C 1018.8 hPa NE 15.6 km/h 37.0 km/h 56% 0.0 mm CLR
13:20 17.4 °C 8.5 °C 1018.8 hPa NNE 11.3 km/h 22.5 km/h 56% 0.0 mm CLR
13:25 17.3 °C 8.4 °C 1018.8 hPa NNE 11.9 km/h 37.0 km/h 56% 0.0 mm CLR
13:30 17.4 °C 8.3 °C 1018.8 hPa East 13.7 km/h 37.0 km/h 55% 0.0 mm CLR
13:34 17.3 °C 8.2 °C 1018.8 hPa NE 13.7 km/h 37.0 km/h 55% 0.0 mm CLR
13:40 17.3 °C 8.4 °C 1018.8 hPa ENE 13.0 km/h 37.0 km/h 56% 0.0 mm CLR
13:45 17.3 °C 8.2 °C 1018.8 hPa NE 13.0 km/h 37.0 km/h 55% 0.0 mm CLR
13:50 17.2 °C 8.3 °C 1018.8 hPa NE 12.9 km/h 24.1 km/h 56% 0.0 mm CLR
13:55 16.9 °C 8.3 °C 1018.8 hPa NE 12.9 km/h 25.7 km/h 57% 0.0 mm CLR
14:00 16.8 °C 8.2 °C 1018.8 hPa NNE 14.0 km/h 37.0 km/h 57% 0.0 mm CLR
14:05 16.7 °C 8.9 °C 1018.8 hPa NE 14.0 km/h 37.0 km/h 60% 0.0 mm CLR
14:10 16.6 °C 8.6 °C 1018.8 hPa NE 11.1 km/h 37.0 km/h 59% 0.0 mm CLR
14:15 16.6 °C 8.8 °C 1018.8 hPa NE 11.1 km/h 37.0 km/h 60% 0.0 mm CLR
14:20 16.4 °C 8.6 °C 1018.8 hPa NE 13.7 km/h 37.0 km/h 60% 0.0 mm CLR
14:25 16.4 °C 8.4 °C 1019.2 hPa NNE 13.7 km/h 37.0 km/h 59% 0.0 mm CLR
14:30 16.3 °C 8.5 °C 1019.2 hPa NNE 10.0 km/h 37.0 km/h 60% 0.0 mm CLR
14:35 16.2 °C 8.7 °C 1019.2 hPa NE 10.0 km/h 37.0 km/h 61% 0.0 mm CLR
14:40 16.1 °C 9.1 °C 1019.2 hPa East 10.3 km/h 37.0 km/h 63% 0.0 mm CLR
14:45 16.0 °C 9.2 °C 1019.2 hPa East 10.3 km/h 37.0 km/h 64% 0.0 mm CLR
14:50 15.9 °C 9.1 °C 1019.2 hPa NE 9.5 km/h 37.0 km/h 64% 0.0 mm CLR
14:55 15.8 °C 9.2 °C 1019.2 hPa ENE 9.5 km/h 37.0 km/h 65% 0.0 mm CLR
15:00 15.7 °C 9.4 °C 1019.2 hPa NE 8.7 km/h 37.0 km/h 66% 0.0 mm CLR
15:05 15.6 °C 9.5 °C 1019.2 hPa NNE 8.7 km/h 37.0 km/h 67% 0.0 mm CLR
15:10 15.4 °C 9.3 °C 1019.2 hPa ENE 8.4 km/h 37.0 km/h 67% 0.0 mm CLR
15:15 15.4 °C 9.5 °C 1019.2 hPa East 8.4 km/h 37.0 km/h 68% 0.0 mm CLR
15:20 15.3 °C 9.4 °C 1019.2 hPa East 8.7 km/h 37.0 km/h 68% 0.0 mm CLR
15:25 15.2 °C 9.3 °C 1019.2 hPa NE 8.7 km/h 37.0 km/h 68% 0.0 mm FEW
15:30 15.1 °C 9.4 °C 1019.2 hPa ENE 8.4 km/h 37.0 km/h 69% 0.0 mm FEW
15:35 15.1 °C 9.4 °C 1019.2 hPa NE 8.4 km/h 37.0 km/h 69% 0.0 mm FEW
15:40 14.9 °C 9.3 °C 1019.2 hPa NE 8.0 km/h 9.7 km/h 69% 0.0 mm FEW
15:45 14.8 °C 9.4 °C 1019.2 hPa NE 8.4 km/h 37.0 km/h 70% 0.0 mm CLR
15:50 14.8 °C 9.4 °C 1019.2 hPa NE 8.0 km/h 12.9 km/h 70% 0.0 mm FEW
15:55 14.8 °C 9.4 °C 1019.5 hPa NNE 6.9 km/h 37.0 km/h 70% 0.0 mm CLR
16:00 14.7 °C 9.3 °C 1019.5 hPa NNE 3.2 km/h 4.8 km/h 70% 0.0 mm CLR
16:05 14.7 °C 9.3 °C 1019.5 hPa NNE 3.2 km/h 4.8 km/h 70% 0.0 mm FEW
16:10 14.7 °C 9.3 °C 1019.5 hPa North 2.9 km/h 37.0 km/h 70% 0.0 mm CLR
16:15 14.6 °C 9.2 °C 1019.5 hPa NNW 2.9 km/h 37.0 km/h 70% 0.0 mm FEW
16:20 14.6 °C 9.4 °C 1019.5 hPa North 5.8 km/h 37.0 km/h 71% 0.0 mm FEW
16:25 14.4 °C 9.2 °C 1019.5 hPa NNW 5.8 km/h 37.0 km/h 71% 0.0 mm FEW
16:30 14.4 °C 9.2 °C 1019.5 hPa NNE 3.9 km/h 37.0 km/h 71% 0.0 mm FEW
16:35 14.3 °C 9.3 °C 1019.5 hPa NNE 3.9 km/h 37.0 km/h 72% 0.0 mm FEW
16:40 14.3 °C 9.3 °C 1019.9 hPa NNE 3.9 km/h 37.0 km/h 72% 0.0 mm FEW
16:45 14.2 °C 9.2 °C 1019.9 hPa North 3.9 km/h 37.0 km/h 72% 0.0 mm CLR
16:50 14.2 °C 9.4 °C 1019.5 hPa NNE 5.8 km/h 37.0 km/h 73% 0.0 mm FEW
16:55 14.1 °C 9.3 °C 1019.5 hPa NNE 5.8 km/h 37.0 km/h 73% 0.0 mm CLR
17:00 14.0 °C 9.2 °C 1019.5 hPa NNE 6.4 km/h 37.0 km/h 73% 0.0 mm CLR
17:05 13.9 °C 9.3 °C 1019.5 hPa NNE 6.4 km/h 37.0 km/h 74% 0.0 mm CLR
17:10 13.9 °C 9.3 °C 1019.5 hPa NE 3.9 km/h 37.0 km/h 74% 0.0 mm FEW
17:15 13.9 °C 9.3 °C 1019.5 hPa NNE 3.9 km/h 37.0 km/h 74% 0.0 mm CLR
17:20 13.9 °C 9.3 °C 1019.5 hPa North 5.0 km/h 37.0 km/h 74% 0.0 mm FEW
17:25 13.8 °C 9.2 °C 1019.5 hPa NE 5.0 km/h 37.0 km/h 74% 0.0 mm CLR
17:30 13.8 °C 9.2 °C 1019.5 hPa NE 3.2 km/h 37.0 km/h 74% 0.0 mm FEW
17:35 13.8 °C 9.2 °C 1019.5 hPa NNE 3.2 km/h 37.0 km/h 74% 0.0 mm CLR
17:40 13.7 °C 9.3 °C 1019.5 hPa NNE 3.2 km/h 37.0 km/h 75% 0.0 mm FEW
17:41 13.7 °C 9.3 °C 1019.5 hPa NNE 3.2 km/h 37.0 km/h 75% 0.0 mm CLR
17:46 13.7 °C 9.3 °C 1019.5 hPa NNE 3.2 km/h 37.0 km/h 75% 0.0 mm CLR
17:51 13.7 °C 9.3 °C 1019.5 hPa WNW 2.3 km/h 37.0 km/h 75% 0.0 mm CLR
17:56 13.7 °C 9.3 °C 1019.5 hPa WNW 2.3 km/h 37.0 km/h 75% 0.0 mm CLR
18:01 13.7 °C 9.3 °C 1019.5 hPa WNW 3.2 km/h 37.0 km/h 75% 0.0 mm CLR
18:06 13.6 °C 9.2 °C 1019.5 hPa WNW 3.2 km/h 37.0 km/h 75% 0.0 mm CLR
18:11 13.6 °C 9.2 °C 1019.5 hPa WNW 2.3 km/h 37.0 km/h 75% 0.0 mm CLR
18:16 13.6 °C 9.2 °C 1019.5 hPa WNW 2.3 km/h 37.0 km/h 75% 0.0 mm CLR
18:21 13.6 °C 9.2 °C 1019.5 hPa WNW 2.3 km/h 37.0 km/h 75% 0.0 mm CLR
18:26 13.6 °C 9.2 °C 1019.5 hPa WNW 2.3 km/h 37.0 km/h 75% 0.0 mm CLR
18:31 13.6 °C 9.2 °C 1019.5 hPa NW 2.3 km/h 37.0 km/h 75% 0.0 mm CLR
18:36 13.6 °C 9.2 °C 1019.5 hPa NW 2.3 km/h 37.0 km/h 75% 0.0 mm CLR
18:41 13.4 °C 8.8 °C 1019.5 hPa NW 2.3 km/h 37.0 km/h 74% 0.0 mm CLR
18:46 13.3 °C 8.9 °C 1019.5 hPa WNW 2.3 km/h 37.0 km/h 75% 0.0 mm CLR
18:51 13.1 °C 8.8 °C 1019.5 hPa West 3.9 km/h 37.0 km/h 75% 0.0 mm CLR
18:56 12.9 °C 8.8 °C 1019.5 hPa West 3.9 km/h 37.0 km/h 76% 0.0 mm CLR
19:01 12.9 °C 8.8 °C 1019.5 hPa West 3.9 km/h 37.0 km/h 76% 0.0 mm CLR
19:06 12.9 °C 8.9 °C 1019.5 hPa West 3.2 km/h 37.0 km/h 77% 0.0 mm CLR
19:11 12.9 °C 8.9 °C 1019.5 hPa West 3.2 km/h 37.0 km/h 77% 0.0 mm CLR
19:16 12.9 °C 8.9 °C 1019.5 hPa West 2.3 km/h 37.0 km/h 77% 0.0 mm CLR
19:21 12.9 °C 8.9 °C 1019.5 hPa West 2.3 km/h 37.0 km/h 77% 0.0 mm CLR
19:26 12.9 °C 8.8 °C 1019.5 hPa West 2.9 km/h 37.0 km/h 76% 0.0 mm CLR
19:31 13.0 °C 8.9 °C 1019.5 hPa West 2.9 km/h 37.0 km/h 76% 0.0 mm CLR
19:36 13.0 °C 8.9 °C 1019.2 hPa WNW 3.2 km/h 37.0 km/h 76% 0.0 mm CLR
19:41 13.0 °C 8.9 °C 1019.2 hPa WNW 3.2 km/h 37.0 km/h 76% 0.0 mm CLR
19:46 12.9 °C 8.8 °C 1019.2 hPa West 2.3 km/h 37.0 km/h 76% 0.0 mm CLR
19:51 12.9 °C 8.9 °C 1019.2 hPa West 2.3 km/h 37.0 km/h 77% 0.0 mm CLR
19:56 12.9 °C 8.9 °C 1019.2 hPa WSW 2.3 km/h 37.0 km/h 77% 0.0 mm CLR
20:01 12.8 °C 8.9 °C 1019.2 hPa SW 2.3 km/h 37.0 km/h 77% 0.0 mm CLR
20:06 12.8 °C 9.1 °C 1019.2 hPa SSW 3.2 km/h 37.0 km/h 78% 0.0 mm CLR
20:11 12.8 °C 9.1 °C 1019.2 hPa SW 3.2 km/h 37.0 km/h 78% 0.0 mm CLR
20:16 12.8 °C 9.1 °C 1019.2 hPa SW 2.9 km/h 37.0 km/h 78% 0.0 mm CLR
20:21 12.8 °C 9.1 °C 1018.8 hPa SW 2.9 km/h 37.0 km/h 78% 0.0 mm CLR
20:26 12.9 °C 8.9 °C 1018.8 hPa South 3.2 km/h 37.0 km/h 77% 0.0 mm CLR
20:31 12.8 °C 8.9 °C 1018.8 hPa SSW 3.2 km/h 37.0 km/h 77% 0.0 mm CLR
20:32 12.8 °C 8.9 °C 1018.8 hPa SSW 3.2 km/h 37.0 km/h 77% 0.0 mm CLR
20:37 12.8 °C 8.9 °C 1018.8 hPa South 4.7 km/h 37.0 km/h 77% 0.0 mm CLR
20:42 12.7 °C 8.8 °C 1018.8 hPa SSW 4.7 km/h 37.0 km/h 77% 0.0 mm CLR
20:47 12.7 °C 8.8 °C 1018.8 hPa South 4.7 km/h 37.0 km/h 77% 0.0 mm CLR
20:52 12.7 °C 8.8 °C 1018.5 hPa SSW 4.7 km/h 37.0 km/h 77% 0.0 mm CLR
20:57 12.6 °C 8.7 °C 1018.5 hPa South 5.0 km/h 37.0 km/h 77% 0.0 mm CLR
21:02 12.6 °C 8.7 °C 1018.5 hPa South 5.0 km/h 37.0 km/h 77% 0.0 mm CLR
21:07 12.6 °C 8.7 °C 1018.5 hPa SW 5.8 km/h 37.0 km/h 77% 0.0 mm CLR
21:12 12.5 °C 8.6 °C 1018.5 hPa SW 5.8 km/h 37.0 km/h 77% 0.0 mm CLR
21:17 12.4 °C 8.7 °C 1018.5 hPa SSW 4.7 km/h 37.0 km/h 78% 0.0 mm CLR
21:22 12.4 °C 8.7 °C 1018.2 hPa SW 4.7 km/h 37.0 km/h 78% 0.0 mm CLR
21:27 12.4 °C 8.7 °C 1018.2 hPa SW 3.2 km/h 37.0 km/h 78% 0.0 mm CLR
21:32 12.4 °C 8.7 °C 1018.2 hPa WSW 3.2 km/h 37.0 km/h 78% 0.0 mm CLR
21:37 12.4 °C 8.7 °C 1018.2 hPa SSE 3.2 km/h 37.0 km/h 78% 0.0 mm CLR
21:42 12.4 °C 8.7 °C 1018.2 hPa SSE 3.2 km/h 37.0 km/h 78% 0.0 mm CLR
21:47 12.3 °C 8.6 °C 1018.2 hPa SSE 5.0 km/h 37.0 km/h 78% 0.0 mm CLR
21:52 12.3 °C 8.6 °C 1017.8 hPa South 5.0 km/h 37.0 km/h 78% 0.0 mm CLR
21:57 12.3 °C 8.6 °C 1017.8 hPa South 5.0 km/h 37.0 km/h 78% 0.0 mm CLR
22:02 12.2 °C 8.5 °C 1017.8 hPa South 5.0 km/h 37.0 km/h 78% 0.0 mm CLR
22:07 12.2 °C 8.7 °C 1017.8 hPa SSW 6.9 km/h 37.0 km/h 79% 0.0 mm CLR
22:12 12.1 °C 8.6 °C 1017.8 hPa SSW 6.9 km/h 37.0 km/h 79% 0.0 mm CLR
22:17 12.1 °C 8.6 °C 1017.8 hPa SSW 7.6 km/h 37.0 km/h 79% 0.0 mm CLR
22:22 12.1 °C 8.6 °C 1017.8 hPa SSW 7.6 km/h 37.0 km/h 79% 0.0 mm CLR
22:27 12.1 °C 8.6 °C 1017.8 hPa SW 5.8 km/h 37.0 km/h 79% 0.0 mm CLR
22:32 12.1 °C 8.6 °C 1017.8 hPa SW 5.8 km/h 37.0 km/h 79% 0.0 mm CLR
22:37 12.0 °C 8.4 °C 1017.8 hPa WSW 8.4 km/h 37.0 km/h 79% 0.0 mm CLR
22:42 12.0 °C 8.4 °C 1017.8 hPa SW 8.4 km/h 37.0 km/h 79% 0.0 mm CLR
22:47 12.0 °C 8.4 °C 1017.8 hPa SSW 6.9 km/h 37.0 km/h 79% 0.0 mm CLR
22:52 12.0 °C 8.4 °C 1017.8 hPa SW 6.9 km/h 37.0 km/h 79% 0.0 mm CLR
22:57 12.0 °C 8.3 °C 1017.8 hPa South 5.8 km/h 37.0 km/h 78% 0.0 mm CLR
23:02 11.9 °C 8.2 °C 1017.8 hPa SW 5.8 km/h 37.0 km/h 78% 0.0 mm CLR
23:07 11.9 °C 8.2 °C 1017.8 hPa SW 5.8 km/h 37.0 km/h 78% 0.0 mm CLR
23:12 11.9 °C 8.4 °C 1017.8 hPa SSW 5.8 km/h 37.0 km/h 79% 0.0 mm CLR
23:17 11.9 °C 8.4 °C 1017.8 hPa WSW 6.4 km/h 37.0 km/h 79% 0.0 mm CLR
23:22 11.9 °C 8.4 °C 1017.5 hPa SW 6.4 km/h 37.0 km/h 79% 0.0 mm CLR
23:27 11.9 °C 8.4 °C 1017.5 hPa SW 5.8 km/h 37.0 km/h 79% 0.0 mm CLR
23:32 11.9 °C 8.4 °C 1017.5 hPa SSW 5.8 km/h 37.0 km/h 79% 0.0 mm CLR
23:37 11.9 °C 8.2 °C 1017.5 hPa SW 6.9 km/h 37.0 km/h 78% 0.0 mm CLR
23:42 11.8 °C 8.1 °C 1017.5 hPa WSW 6.9 km/h 37.0 km/h 78% 0.0 mm CLR
23:47 11.8 °C 8.3 °C 1017.5 hPa WSW 8.4 km/h 37.0 km/h 79% 0.0 mm CLR
23:52 11.8 °C 8.3 °C 1017.5 hPa SW 8.4 km/h 37.0 km/h 79% 0.0 mm CLR
23:57 11.8 °C 8.4 °C 1017.5 hPa WSW 6.4 km/h 37.0 km/h 80% 0.0 mm CLR
Murcia-Puente Tocinos, España
Compliments of Weather Underground - 2.75 mb

La estación de MeteoMurcia.com, publica sus datos en los siguientes proyectos:

Meteoclimatic www.awekas.at

W3Counter
Web Analytics